Location: Владивосток
(43.1151°N, 131.8856°E)
Time: 22:45:51
(UTC+10:00)

First-Move - Pass Details

Date: 04 July 2022
Orbit: 572 x 658 km, 97.6° (Epoch: 14 August)

Event Time Altitude Azimuth Distance (km) Brightness Sun altitude
Rises 03:51:16 0° 36° (NE) 2,966 ? -15.0°
Reaches altitude 10° 03:55:23 10° 73° (ENE) 2,064 ? -14.6°
Maximum altitude 03:56:31 11° 88° (E) 2,009 ? -14.4°
Drops below altitude 10° 03:57:40 10° 103° (ESE) 2,067 ? -14.3°
Sets 04:01:47 0° 140° (SE) 2,977 ? -13.9°
